Theta_e
280 282 281 281 281 280 279 280 277 281 281 284 291 294 294 295 300 301 303 306 306 306 308 312 315 317 319 319 320 321 320 320 320 321 321 320 320 319 318 317 317 317 316 316
277 281 281 279 280 280 280 280 280 280 280 287 291 292 293 295 301 300 305 308 307 308 308 308 311 316 319 319 320 321 319 319 321 320 320 320 319 317 317 316 316 316 315 315
273 278 278 273 278 279 281 282 280 276 281 290 288 290 291 296 301 301 301 309 309 309 309 309 307 309 314 317 319 320 320 320 320 320 320 320 317 316 316 315 313 313 311 310
270 275 267 277 283 283 281 282 284 283 284 285 287 290 292 296 300 301 302 305 308 308 309 308 310 311 312 313 317 319 319 319 319 319 317 316 316 314 311 310 310 308 307 307
266 270 275 279 282 280 279 279 285 284 286 287 289 291 290 296 301 301 304 306 305 309 309 310 311 312 313 312 312 315 316 317 318 317 315 315 313 309 307 306 305 305 305 304
271 263 264 277 284 286 285 275 285 285 285 285 286 281 285 293 299 301 303 306 308 308 309 310 312 314 311 309 308 307 310 311 314 316 313 310 307 305 304 305 304 303 303 303
269 265 273 282 286 288 275 276 287 289 287 286 283 287 291 297 299 301 303 305 307 308 308 309 313 313 310 309 306 307 307 307 306 306 305 305 304 305 304 303 303 302 301 301
272 267 271 286 286 281 283 285 289 288 290 290 291 293 294 296 298 298 299 302 305 304 306 310 312 312 310 308 308 309 306 305 304 304 305 304 303 302 301 301 300 299 298 297
280 277 284 288 289 291 288 287 287 288 289 290 291 291 292 292 294 296 299 299 301 303 304 307 310 311 308 309 308 307 307 304 304 303 303 303 302 300 299 298 297 296 295 295
282 285 287 289 291 292 291 290 291 290 290 290 290 290 290 292 293 293 296 297 299 302 303 305 308 310 309 308 308 305 303 302 302 302 302 301 300 299 297 296 295 295 294 294
284 287 289 290 290 291 292 292 291 292 291 291 289 290 291 291 292 294 295 299 300 300 302 302 306 305 305 307 306 303 301 300 300 299 299 297 298 296 296 296 296 295 295 293
282 288 288 288 290 292 291 290 291 290 290 291 291 290 291 291 292 294 294 297 299 301 301 303 303 302 303 303 303 301 298 297 296 296 296 295 295 295 293 293 292 292 291 292
288 291 291 292 292 292 290 291 291 291 291 291 292 292 292 291 292 295 296 297 298 299 303 303 302 301 302 302 301 299 296 295 294 294 294 293 293 293 293 293 293 293 292 291
291 290 288 292 290 293 294 295 296 295 293 292 292 292 293 292 293 294 295 298 300 300 302 303 301 301 302 301 299 297 296 294 294 294 293 292 293 292 292 292 292 294 293 292
292 294 294 292 294 294 294 294 294 293 294 292 293 292 292 292 292 293 296 299 300 302 301 301 300 300 300 299 297 296 295 295 294 293 293 292 292 292 292 292 292 293 294 293
294 296 294 293 292 293 294 294 293 295 296 294 293 292 293 293 293 294 297 300 299 300 301 300 298 298 299 298 297 296 295 292 292 293 293 292 292 292 292 291 291 292 292 293
293 292 293 293 293 294 294 295 296 296 295 295 293 293 293 293 294 294 297 299 299 298 298 299 298 300 299 298 297 296 295 293 288 293 293 292 292 291 292 291 291 291 292 292
296 296 296 295 294 295 295 297 299 299 297 298 297 295 293 293 293 294 297 297 298 297 298 300 301 302 300 299 297 296 295 293 292 292 292 292 292 292 294 292 291 291 291 291
296 295 295 295 295 295 295 296 296 298 298 297 296 295 294 294 295 297 298 297 297 296 297 300 297 300 300 299 297 296 295 294 293 293 294 291 293 291 290 289 289 290 290 289
294 296 295 295 295 295 294 295 296 298 298 298 296 296 296 297 296 296 297 296 296 296 298 299 300 300 299 296 294 296 295 295 294 294 294 292 290 288 288 287 288 289 289 289
293 294 294 294 294 294 294 294 294 293 294 298 296 295 295 297 297 297 296 295 298 299 300 297 299 298 298 295 296 296 295 294 294 293 291 289 288 288 288 288 288 288 288 288
293 292 292 293 293 292 294 294 294 293 292 296 296 297 297 295 295 295 296 295 296 290 297 297 297 291 294 290 297 296 295 294 292 290 288 287 287 287 287 287 287 287 287 288
294 293 292 290 291 292 293 293 293 293 292 291 288 289 289 289 292 293 292 293 297 293 298 296 289 286 287 297 295 295 294 292 289 288 287 287 286 286 286 286 286 286 286 286
291 292 291 292 292 291 290 291 293 294 294 294 293 289 290 292 290 289 289 288 288 291 295 291 289 287 290 295 295 294 292 290 289 288 287 284 285 285 285 285 285 286 286 286
291 291 290 290 290 290 290 292 292 293 294 294 295 295 294 294 291 288 290 292 286 292 293 287 287 288 294 294 294 293 291 290 289 287 286 285 285 285 285 285 285 285 285 285
294 291 290 290 289 289 289 291 290 292 293 293 293 293 294 294 293 292 291 291 292 290 294 295 295 295 294 293 292 291 290 288 287 286 286 285 285 285 285 285 285 285 285 285
290 290 289 289 289 290 290 289 291 291 291 291 292 293 294 295 293 293 290 292 293 293 292 293 293 292 292 292 291 290 289 288 286 286 285 285 285 285 285 285 285 285 285 285
Wind_Speed
5 6 6 8 11 7 8 7 7 4 12 13 13 9 11 9 13 15 12 12 11 11 8 6 6 6 6 6 10 13 14 14 14 13 11 11 11 10 8 8 7 7 7 5
4 10 10 12 12 13 11 11 18 15 24 13 9 6 7 14 11 13 11 10 8 8 11 10 5 3 6 8 9 10 11 14 14 13 12 13 10 9 9 9 8 7 7 7
4 2 4 9 18 15 6 6 7 10 13 8 6 8 5 7 10 7 10 9 7 7 5 6 7 6 2 6 6 7 10 10 11 12 13 11 10 10 9 9 6 6 5 5
3 1 6 8 3 6 10 10 10 14 12 13 15 12 10 6 7 8 2 7 5 6 7 7 6 7 5 5 6 9 8 8 9 9 8 9 9 8 7 6 7 6 5 4
3 4 9 5 6 6 8 11 18 16 17 13 10 4 9 7 7 7 7 2 5 3 4 8 9 8 5 9 6 4 7 9 10 10 9 9 9 9 5 5 4 4 3 4
3 4 8 6 4 7 6 18 8 11 13 11 5 10 11 12 8 9 5 5 9 4 5 10 11 8 7 12 7 9 7 6 6 7 10 9 8 8 4 5 5 5 4 3
5 5 10 7 5 7 8 8 3 1 7 8 6 9 6 5 7 4 5 5 3 4 6 8 8 7 7 9 9 7 8 10 11 9 9 10 8 4 5 5 5 3 1 0
3 4 15 11 5 10 6 3 1 3 2 6 7 7 6 5 7 7 6 6 4 3 5 5 12 4 4 5 4 3 12 11 8 7 5 5 9 5 6 5 4 2 4 4
11 9 7 6 5 6 7 7 6 6 5 4 7 8 8 8 5 7 8 6 4 4 3 2 4 11 10 3 4 3 7 7 9 9 6 2 6 5 4 5 3 2 0 3
6 14 23 23 20 14 10 13 13 12 9 6 9 8 10 10 10 5 6 5 3 4 4 4 4 4 10 12 9 4 4 6 4 6 4 4 5 4 4 4 3 2 3 5
18 22 20 21 19 15 15 13 13 13 12 11 10 11 9 11 9 10 5 2 4 6 6 5 1 1 3 5 7 9 8 7 5 4 5 4 4 2 4 3 3 3 4 4
14 17 15 14 14 12 12 11 13 12 11 9 10 12 11 10 8 10 6 3 5 7 6 4 2 3 4 6 9 10 8 5 5 5 4 4 3 3 3 1 2 5 10 8
17 16 18 20 18 16 11 11 13 12 11 12 10 11 10 6 6 10 5 6 5 6 6 4 5 5 5 6 8 8 8 6 4 5 4 3 1 1 2 1 5 5 5 6
19 18 14 17 12 9 7 10 12 11 10 12 12 7 8 6 5 6 7 7 5 5 5 4 4 4 3 5 7 7 6 9 5 4 4 3 3 1 3 2 5 7 3 5
17 17 16 14 11 11 10 11 11 10 9 8 9 9 7 7 6 8 6 5 4 6 6 7 7 6 5 6 7 7 6 5 5 4 4 4 3 2 2 2 3 5 6 5
18 7 9 6 9 9 9 9 11 13 8 8 8 8 9 7 5 6 5 6 7 6 7 6 5 6 7 7 8 6 6 9 6 4 3 3 1 2 2 3 5 6 6 7
9 11 7 6 6 8 9 8 5 3 4 6 8 6 6 7 5 4 4 4 5 5 5 6 7 7 6 7 7 5 5 4 5 4 3 1 2 2 3 3 4 5 6 6
13 13 12 10 10 9 9 8 3 2 3 3 5 6 6 6 6 5 5 8 7 6 6 7 7 8 7 8 6 6 5 4 4 3 2 1 1 2 2 3 4 5 7 7
14 14 13 13 13 11 10 8 6 3 2 4 5 6 6 5 6 7 6 6 9 9 4 7 11 8 7 6 7 4 5 5 4 3 2 1 3 3 4 4 5 6 6 7
14 14 13 13 14 14 13 13 11 3 1 3 5 7 9 9 8 8 8 5 4 4 5 6 6 6 7 6 8 5 4 4 4 3 3 4 4 4 4 5 5 6 6 7
13 12 13 12 12 13 13 12 11 11 8 3 6 6 8 10 10 9 10 8 6 5 7 8 6 5 5 6 6 5 4 4 4 4 5 4 5 5 5 5 5 6 6 7
9 9 10 11 10 11 12 12 12 12 11 6 8 9 9 10 10 10 8 7 4 6 6 5 4 5 4 7 6 6 5 6 6 5 5 5 5 5 5 5 6 7 7 8
7 7 8 9 9 9 10 11 12 12 13 13 12 11 9 6 5 8 7 5 4 5 4 3 3 6 7 6 7 7 7 7 6 6 5 5 5 5 4 6 7 8 8 8
4 5 5 6 7 9 10 10 10 10 11 11 12 9 8 7 6 4 3 3 3 4 4 4 5 6 8 7 7 7 7 7 6 6 6 6 5 5 7 8 7 7 7 8
2 3 4 6 6 5 6 7 8 8 8 10 10 7 6 4 3 1 2 3 4 4 4 6 6 9 7 6 6 7 6 6 6 6 5 6 6 7 7 6 7 7 7 8
3 1 2 4 3 3 3 4 5 5 5 6 6 5 4 3 3 3 3 5 6 7 7 4 5 6 5 6 7 7 7 6 6 6 7 7 8 7 6 7 7 8 8 8
5 6 4 3 3 3 3 3 5 4 4 3 3 4 3 4 6 6 6 6 7 7 6 5 5 6 6 7 7 7 6 5 6 6 6 6 6 6 6 6 6 7 7 8
Wind_Direction
238 270 278 267 284 270 234 218 222 268 308 308 313 309 317 309 339 332 342 354 7 354 9 35 78 101 114 127 150 155 154 153 166 165 160 152 165 175 163 155 158 165 162 184
262 237 242 267 258 253 255 246 255 265 272 263 259 271 334 324 321 337 335 344 355 7 18 9 28 109 137 145 150 152 160 166 163 161 157 164 169 167 155 154 163 161 176 184
268 193 236 274 249 229 223 215 227 243 265 272 279 291 301 309 300 303 333 346 344 338 2 31 357 357 222 171 143 153 161 162 163 163 164 158 145 150 162 156 139 160 163 164
230 164 236 238 167 179 212 245 246 249 251 242 263 272 254 242 265 268 7 333 5 331 337 7 350 18 337 168 152 145 138 133 137 133 122 122 136 148 136 145 158 148 148 152
175 212 284 278 211 190 182 251 234 236 246 243 249 258 280 257 237 247 240 135 327 51 345 352 8 3 10 37 84 114 144 135 129 129 130 147 151 151 135 138 123 130 138 164
155 179 238 227 208 204 93 262 278 236 252 243 233 250 252 270 227 247 226 214 179 217 95 18 12 4 19 51 42 57 42 66 88 126 148 136 132 127 128 120 133 143 160 176
209 239 276 239 225 124 182 254 355 197 240 257 203 222 240 283 275 260 253 249 295 259 156 115 53 352 29 61 35 77 99 80 78 78 92 111 108 90 107 106 110 114 113 330
202 192 273 210 132 190 210 245 243 304 292 292 266 276 267 276 279 279 281 283 264 258 216 155 127 117 41 82 119 123 91 86 75 72 97 123 114 121 117 116 112 80 32 346
198 212 237 207 223 218 166 209 222 245 239 236 279 289 303 286 223 264 292 278 282 243 254 262 188 154 144 263 312 50 111 140 123 118 131 122 125 128 120 97 70 76 222 285
292 239 253 260 262 251 241 248 251 231 247 201 242 261 278 288 286 218 272 297 271 282 272 252 200 221 177 167 153 140 112 94 87 107 150 150 122 114 94 111 157 235 260 252
254 263 270 264 258 262 266 252 258 261 256 234 217 239 248 274 274 277 237 256 283 238 232 246 156 151 138 143 146 138 143 113 130 110 137 115 96 84 110 208 164 199 246 259
266 281 278 265 269 263 253 237 235 233 249 239 214 230 234 240 244 260 249 194 219 262 265 225 140 156 141 138 147 136 122 129 142 131 106 89 125 166 172 201 17 282 247 231
278 273 264 266 266 264 247 244 250 238 228 233 223 215 232 223 227 248 243 212 202 227 260 225 154 161 157 141 133 125 128 132 111 114 135 134 121 59 46 333 200 200 279 293
291 284 273 251 254 250 234 263 264 247 232 226 234 215 216 198 233 241 241 232 189 197 226 211 169 177 158 129 110 110 104 119 123 130 127 111 100 87 55 356 332 329 335 311
291 290 270 247 274 267 285 280 274 253 242 219 222 215 201 207 212 232 238 224 193 178 163 178 165 165 135 113 112 117 119 129 130 121 109 125 120 95 82 319 329 314 328 317
296 321 341 251 264 254 240 253 259 256 242 228 221 218 211 208 208 233 227 171 142 181 178 150 136 132 129 134 131 120 115 111 93 104 103 90 84 54 12 356 348 337 327 293
353 3 345 335 258 251 254 252 242 255 193 195 205 201 182 192 201 188 244 133 115 134 146 147 147 138 129 123 116 115 105 102 103 93 81 63 42 12 346 347 327 293 289 301
8 13 13 12 10 6 344 328 300 227 243 216 140 130 149 164 186 159 154 115 104 93 97 108 112 111 118 110 109 113 121 127 123 115 117 81 14 310 335 339 318 320 327 330
12 18 16 13 8 0 351 328 246 200 144 186 154 133 126 140 112 119 122 125 131 126 144 121 115 110 105 113 119 111 121 132 123 113 103 70 43 34 17 5 348 355 339 342
6 11 13 10 10 8 7 9 24 57 186 99 108 125 124 113 111 120 107 98 82 98 112 115 98 105 99 109 119 120 137 129 119 109 78 65 51 34 24 15 5 356 352 350
360 4 8 9 8 13 15 16 19 23 15 133 122 93 118 121 112 121 122 114 90 93 94 90 88 87 109 120 115 115 103 116 105 83 81 72 64 52 42 26 15 7 359 358
358 358 2 6 13 16 10 16 24 28 30 79 97 104 104 95 92 77 60 94 105 100 95 79 80 97 121 133 127 128 132 103 93 91 87 80 72 61 45 29 22 15 10 1
358 357 4 15 9 15 22 19 21 28 41 51 61 72 73 65 76 106 98 31 80 103 114 119 150 137 131 110 113 105 97 95 95 91 90 84 73 61 49 37 29 18 10 1
349 1 1 1 27 26 24 21 23 26 35 46 50 45 67 84 51 41 82 105 100 103 95 105 110 109 109 108 102 102 108 106 102 100 94 81 76 62 46 36 25 12 8 3
317 6 23 22 24 33 28 22 39 32 32 41 45 50 57 41 114 233 71 137 139 135 96 96 96 95 100 101 102 105 106 105 103 97 92 85 70 60 50 36 27 16 9 8
329 2 69 57 46 37 56 60 51 25 29 39 36 16 21 43 84 87 86 89 107 114 116 114 105 100 95 96 101 106 102 99 98 95 87 76 70 62 50 38 28 20 13 8
37 44 47 43 28 46 55 60 78 55 33 32 47 5 27 39 53 67 69 78 89 94 89 87 92 91 102 98 94 93 96 98 89 88 79 77 72 67 56 45 33 24 18 16